User: anonymous   Login
Location: Unspecified
(0.0000°N, 0.0000°E)
Time: 00:49:26
(UTC+00:00)
Language:

STARLINK-2097 - Orbit

View from above orbital plane
View from above orbital plane
View from above satellite
View from above satellite

Ground track
Ground track

The orbit is defined by the following mean orbital elements,

1 47377U          26145.48170125 +.00000000 +00000-0 +17765-3 0 00006
2 47377  53.1588  69.1206 0000984  62.9351 297.1751 15.31714437    09
Epoch (UTC): 25 May 2026 11:33:38
Eccentricity: 0.0000984
inclination: 53.1588°
perigee height: 470 km
apogee height: 471 km
right ascension of ascending node: 69.1206°
argument of perigee: 62.9351°
revolutions per day: 15.31714437
mean anomaly at epoch: 297.1751°

The dashed part of the orbit path shows where the satellite is in the earth's shadow,  

DLR